Time,TemperatureF,DewpointF,PressureIn,WindDirection,WindDirectionDegrees,WindSpeedMPH,WindSpeedGustMPH,Humidity,HourlyPrecipIn,Conditions,Clouds,dailyrainin,SoftwareType,DateUTC
2013-12-23 00:00:00,19.5,17.6,29.93,East,90,1.0,1.0,92,0.00,,,0.00,Wunderground v.1.13,2013-12-23 05:00:00,
2013-12-23 00:30:00,19.2,17.3,29.93,East,90,0.0,5.0,92,0.00,,,0.00,Wunderground v.1.13,2013-12-23 05:30:00,
2013-12-23 01:00:00,19.2,17.3,29.93,East,90,0.0,5.0,92,0.00,,,0.00,Wunderground v.1.13,2013-12-23 06:00:00,
2013-12-23 01:30:00,19.4,17.5,29.92,East,90,0.0,5.0,92,0.00,,,0.00,Wunderground v.1.13,2013-12-23 06:30:00,
2013-12-23 02:00:00,19.7,17.8,29.92,East,90,1.0,1.0,92,0.00,,,0.00,Wunderground v.1.13,2013-12-23 07:00:00,
2013-12-23 02:30:00,19.7,17.8,29.92,East,90,0.0,5.0,92,0.00,,,0.00,Wunderground v.1.13,2013-12-23 07:30:00,
2013-12-23 03:00:00,19.7,17.8,29.94,East,90,1.0,5.0,92,0.00,,,0.00,Wunderground v.1.13,2013-12-23 08:00:00,
2013-12-23 03:30:00,20.2,18.2,29.94,East,90,0.0,5.0,92,0.00,,,0.00,Wunderground v.1.13,2013-12-23 08:30:00,
2013-12-23 04:00:00,20.2,18.2,29.94,East,90,0.0,5.0,92,0.00,,,0.00,Wunderground v.1.13,2013-12-23 09:00:00,
2013-12-23 04:30:00,20.2,18.2,29.95,East,90,1.0,5.0,92,0.00,,,0.00,Wunderground v.1.13,2013-12-23 09:30:00,
2013-12-23 05:00:00,20.0,18.1,29.94,East,90,1.0,5.0,92,0.00,,,0.00,Wunderground v.1.13,2013-12-23 10:00:00,
2013-12-23 05:30:00,20.2,18.2,29.94,East,90,0.0,5.0,92,0.00,,,0.00,Wunderground v.1.13,2013-12-23 10:30:00,
2013-12-23 06:00:00,19.9,18.0,29.95,East,90,3.0,3.0,92,0.00,,,0.00,Wunderground v.1.13,2013-12-23 11:00:00,
2013-12-23 06:30:00,19.1,17.2,29.96,East,90,2.0,2.0,92,0.00,,,0.00,Wunderground v.1.13,2013-12-23 11:30:00,
2013-12-23 07:00:00,18.8,16.9,29.97,East,90,1.0,1.0,92,0.00,,,0.00,Wunderground v.1.13,2013-12-23 12:00:00,
2013-12-23 07:30:00,18.8,16.9,29.96,East,90,0.0,5.0,92,0.00,,,0.00,Wunderground v.1.13,2013-12-23 12:30:00,
2013-12-23 08:00:00,18.9,17.0,29.97,East,90,0.0,5.0,92,0.00,,,0.00,Wunderground v.1.13,2013-12-23 13:00:00,
2013-12-23 08:30:00,19.4,17.2,29.98,East,90,0.0,5.0,91,0.00,,,0.00,Wunderground v.1.13,2013-12-23 13:30:00,
2013-12-23 09:00:00,20.0,17.8,29.99,East,90,0.0,5.0,91,0.00,,,0.00,Wunderground v.1.13,2013-12-23 14:00:00,
2013-12-23 09:30:00,19.9,17.7,29.99,East,90,0.0,5.0,91,0.00,,,0.00,Wunderground v.1.13,2013-12-23 14:30:00,
2013-12-23 10:00:00,20.0,17.8,30.00,East,90,0.0,5.0,91,0.00,,,0.00,Wunderground v.1.13,2013-12-23 15:00:00,
2013-12-23 10:30:00,20.5,18.3,30.01,East,90,0.0,5.0,91,0.00,,,0.00,Wunderground v.1.13,2013-12-23 15:30:00,
2013-12-23 11:00:00,21.3,19.1,30.01,East,90,0.0,5.0,91,0.00,,,0.00,Wunderground v.1.13,2013-12-23 16:00:00,
2013-12-23 11:30:00,21.6,19.4,30.00,East,90,0.0,5.0,91,0.00,,,0.00,Wunderground v.1.13,2013-12-23 16:30:00,
2013-12-23 12:00:00,22.1,19.9,29.99,East,90,1.0,5.0,91,0.00,,,0.00,Wunderground v.1.13,2013-12-23 17:00:00,
2013-12-23 12:30:00,22.1,19.9,29.99,East,90,1.0,1.0,91,0.00,,,0.00,Wunderground v.1.13,2013-12-23 17:30:00,
2013-12-23 13:00:00,22.7,20.7,29.99,East,90,0.0,5.0,92,0.00,,,0.00,Wunderground v.1.13,2013-12-23 18:00:00,
2013-12-23 13:30:00,22.9,20.7,29.99,East,90,0.0,5.0,91,0.00,,,0.00,Wunderground v.1.13,2013-12-23 18:30:00,
2013-12-23 14:00:00,23.2,21.2,30.00,East,90,0.0,5.0,92,0.00,,,0.00,Wunderground v.1.13,2013-12-23 19:00:00,
2013-12-23 14:30:00,23.5,21.5,30.01,East,90,0.0,5.0,92,0.00,,,0.00,Wunderground v.1.13,2013-12-23 19:30:00,
2013-12-23 15:00:00,23.0,20.8,30.02,ESE,119,1.0,5.0,91,0.00,,,0.00,Wunderground v.1.13,2013-12-23 20:00:00,
2013-12-23 15:30:00,22.7,20.5,30.03,ESE,123,1.0,5.0,91,0.00,,,0.00,Wunderground v.1.13,2013-12-23 20:30:00,
2013-12-23 16:00:00,22.7,20.5,30.05,SE,124,1.0,1.0,91,0.00,,,0.00,Wunderground v.1.13,2013-12-23 21:00:00,
2013-12-23 16:30:00,22.5,20.3,30.06,SE,126,1.0,1.0,91,0.00,,,0.00,Wunderground v.1.13,2013-12-23 21:30:00,
2013-12-23 17:00:00,22.5,20.3,30.07,SE,133,0.0,5.0,91,0.00,,,0.00,Wunderground v.1.13,2013-12-23 22:00:00,
2013-12-23 17:30:00,22.5,20.3,30.09,SE,133,1.0,1.0,91,0.00,,,0.00,Wunderground v.1.13,2013-12-23 22:30:00,
2013-12-23 18:00:00,22.2,19.7,30.10,SE,136,1.0,1.0,90,0.00,,,0.00,Wunderground v.1.13,2013-12-23 23:00:00,
2013-12-23 18:30:00,21.8,19.1,30.11,SSE,155,1.0,5.0,89,0.00,,,0.00,Wunderground v.1.13,2013-12-23 23:30:00,
2013-12-23 19:00:00,20.8,17.5,30.11,WSW,246,2.0,5.0,87,0.00,,,0.00,Wunderground v.1.13,2013-12-24 00:00:00,
2013-12-23 19:30:00,20.2,16.4,30.13,WSW,246,2.0,5.0,85,0.00,,,0.00,Wunderground v.1.13,2013-12-24 00:30:00,
2013-12-23 20:00:00,19.7,15.9,30.13,WSW,247,1.0,5.0,85,0.00,,,0.00,Wunderground v.1.13,2013-12-24 01:00:00,
2013-12-23 20:30:00,19.1,14.8,30.15,West,269,2.0,2.0,83,0.00,,,0.00,Wunderground v.1.13,2013-12-24 01:30:00,
2013-12-23 21:00:00,18.6,14.0,30.15,West,269,2.0,2.0,82,0.00,,,0.00,Wunderground v.1.13,2013-12-24 02:00:00,
2013-12-23 21:30:00,18.1,14.1,30.16,West,268,1.0,5.0,84,0.00,,,0.00,Wunderground v.1.13,2013-12-24 02:30:00,
2013-12-23 22:00:00,17.5,13.2,30.17,West,271,2.0,2.0,83,0.00,,,0.00,Wunderground v.1.13,2013-12-24 03:00:00,
2013-12-23 22:30:00,17.0,12.7,30.18,WNW,300,2.0,2.0,83,0.00,,,0.00,Wunderground v.1.13,2013-12-24 03:30:00,
2013-12-23 23:00:00,16.4,12.1,30.19,WNW,289,1.0,5.0,83,0.00,,,0.00,Wunderground v.1.13,2013-12-24 04:00:00,
2013-12-23 23:30:00,15.7,11.5,30.19,West,281,2.0,2.0,83,0.00,,,0.00,Wunderground v.1.13,2013-12-24 04:30:00,